WICT2: Wichita River At Wichita Falls, TX

                                SHEF ID:       WICT2     Wichita Rv at Wichita Falls, TX
STATION TYPE:
Regulating: Stage = 18.50, Flow = 5482

PRECIP STAGE RIV-FLOW WTR-TEMP CONDUCT BAT-LOAD
in ft cfs F umho/cm volt
Ccp-Rev Ccp-Rev Ccp-Rev Ccp-Rev Ccp-Rev Ccp-Rev
(America/Chicago)
03/23 00:00 ---- 2.07 17 69.64 6980 12.07
03/23 01:00 ---- 2.08 18 68.95 6972 12.04
03/23 02:00 ---- 2.07 17 68.20 7002 12.04
03/23 03:00 ---- 2.07 17 67.53 7019 12.02
03/23 04:00 ---- 2.07 17 66.85 7054 11.94
03/23 05:00 ---- 2.07 17 66.25 7056 11.98
03/23 06:00 ---- 2.07 17 65.62 7075 11.96
03/23 07:00 ---- 2.08 18 65.01 7087 11.95
03/23 08:00 ---- 2.06 16 64.49 7086 11.94
03/23 09:00 ---- 2.07 17 63.95 7064 11.99
03/23 10:00 ---- 2.03 15 63.70 7059 12.57
03/23 11:00 ---- 2.06 16 63.82 7066 13.04
03/23 12:00 ---- 2.07 17 64.33 7095 12.96
03/23 13:00 ---- 2.05 16 65.25 7101 12.73
03/23 14:00 ---- 2.06 16 66.56 7159 12.61
03/23 15:00 ---- 2.07 17 67.87 7189 12.50
03/23 16:00 ---- 2.07 17 69.01 7203 12.48
03/23 17:00 ---- 2.07 17 69.96 7215 12.39
03/23 18:00 ---- 2.08 18 70.52 7211 12.31
03/23 19:00 ---- 2.07 17 70.52 7196 12.21
03/23 20:00 ---- 2.06 16 70.20 7175 12.17
03/23 21:00 ---- 2.07 17 69.57 7162 12.16
03/23 22:00 ---- 2.07 17 68.81 7151 12.14
03/23 23:00 ---- 2.06 16 68.07 7128 12.13
Data processed at Tue 24Mar2026 04:58 GMT

NOTICE: If you are parsing this page

Please convert to using our Data API. Starting early 2026 we will be migrating to: https://water.usace.army.mil with modern pages rendered in JavaScript. When this migration completes you will no longer be able to scrape this page! CWMSDataAPI (CDA)

Timeseries IDs (TSIDs)

TSIDs used from left to right in the data table
WFAL.Precip-Inc.Total.1Hour.1Hour.Ccp-Rev
WFAL.Stage.Inst.1Hour.0.Ccp-Rev
WFAL.Flow.Inst.1Hour.0.Ccp-Rev
WFAL.Temp-Water.Inst.1Hour.0.Ccp-Rev
WFAL.Cond-Water.Inst.1Hour.0.Ccp-Rev
WFAL.Volt-Battery Load.Inst.1Hour.0.Ccp-Rev

                            

All information presented herein is the property of the government of the United States of America and may be revised or deleted at any time without prior notice. Dissemination of this information without the expressed written consent of the Public Affairs Office, Tulsa District U.S. Army Corps of Engineers is strictly prohibited. These data are gathered electronically and, as presented, have NOT undergone any form of quality control. These data are NOT guaranteed to be valid or correct.